K4AXV-13 Weather Reports


time (UTC)temp
C
wind
direction
speed
KPH
gust
KPH
rain 1hr
cm
rain 24hr
cm
rain mn
cm
humidity
%
barometer
mb
20260902023900 25 214 0.0 0.0 0.00 0.00 0.03
20260902023403 25 249 0.0 0.0 0.00 0.00 0.03
20260902022857 25 249 0.0 0.0 0.00 0.00 0.03
20260902021854 26 249 0.0 0.0 0.00 0.00 0.03
20260902021349 26 249 0.0 0.0 0.00 0.00 0.03
20260902020850 25 249 0.0 0.0 0.00 0.00 0.03
20260902020346 26 249 0.0 0.0 0.00 0.00 0.03
20260902015847 25 249 0.0 0.0 0.00 0.00 0.03
20260902015346 26 325 0.0 0.0 0.00 0.00 0.03
20260902014846 26 325 0.0 0.0 0.00 0.00 0.03
20260902014343 26 325 0.0 0.0 0.00 0.00 0.03
20260902013841 26 325 0.0 0.0 0.00 0.00 0.03
20260902013337 26 325 0.0 0.0 0.00 0.00 0.03
20260902012837 26 325 0.0 0.0 0.00 0.00 0.03
20260902012333 26 325 0.0 0.0 0.00 0.00 0.03
20260902011834 26 325 0.0 0.0 0.00 0.00 0.03
20260902011326 26 325 0.0 0.0 0.00 0.00 0.03
20260902010827 26 325 0.0 0.0 0.00 0.00 0.03
20260902010323 26 325 0.0 0.0 0.00 0.00 0.03
20260902005825 26 325 0.0 0.0 0.00 0.00 0.03
20260902005318 27 325 0.0 0.0 0.00 0.00 0.03
20260902004824 27 325 0.0 0.0 0.00 0.00 0.03
20260902004317 27 325 0.0 0.0 0.00 0.00 0.03
20260902003818 27 325 0.0 0.0 0.00 0.00 0.03
20260902003314 27 325 0.0 0.0 0.00 0.00 0.03
20260902002814 27 325 0.0 0.0 0.00 0.00 0.03
20260902001812 27 325 0.0 0.0 0.00 0.00 0.03
20260902001310 27 93 0.0 1.6 0.00 0.00 0.03
20260902000811 27 93 0.0 0.0 0.00 0.00 0.03
20260902000309 28 93 0.0 0.0 0.00 0.00 0.03
20260901235810 27 93 0.0 0.0 0.00 0.00 0.03
20260901235307 28 93 0.0 0.0 0.00 0.00 0.03
20260901234806 28 93 0.0 0.0 0.00 0.00 0.03
20260901234303 28 93 0.0 0.0 0.00 0.00 0.03
20260901233802 28 93 0.0 0.0 0.00 0.00 0.03
20260901233300 28 93 0.0 0.0 0.00 0.00 0.03
20260901232258 28 122 3.2 6.4 0.00 0.00 0.03
20260901231255 28 101 0.0 0.0 0.00 0.00 0.03
20260901230252 29 145 3.2 3.2 0.00 0.00 0.03
20260901225753 29 110 1.6 4.8 0.00 0.00 0.03
20260901225251 29 120 1.6 1.6 0.00 0.00 0.03
20260901224752 29 117 4.8 3.2 0.00 0.00 0.03
20260901224245 29 113 1.6 1.6 0.00 0.00 0.03
20260901223243 30 124 3.2 4.8 0.00 0.00 0.03
20260901222744 29 156 6.4 6.4 0.00 0.00 0.03
20260901222241 30 117 8.0 6.4 0.00 0.00 0.03
20260901221742 30 142 8.0 8.0 0.00 0.00 0.03
20260901221239 30 142 9.7 8.0 0.00 0.00 0.03
20260901220740 30 143 8.0 8.0 0.00 0.00 0.03
20260901214737 30 210 4.8 4.8 0.00 0.00 0.03
20260901213735 30 156 8.0 9.7 0.00 0.00 0.03
20260901213233 30 125 6.4 6.4 0.00 0.00 0.03
20260901212734 30 149 9.7 11.3 0.00 0.00 0.03
20260901212232 31 156 9.7 11.3 0.00 0.00 0.03
20260901211733 31 141 6.4 9.7 0.00 0.00 0.03
20260901210732 31 124 11.3 8.0 0.00 0.00 0.03
20260901210230 31 138 1.6 6.4 0.00 0.00 0.03
20260901204730 31 125 4.8 8.0 0.00 0.00 0.03
20260901204228 31 113 6.4 8.0 0.00 0.00 0.03
20260901202728 31 155 12.9 11.3 0.00 0.00 0.03
20260901202226 31 145 11.3 11.3 0.00 0.00 0.03
20260901201727 32 124 6.4 6.4 0.00 0.00 0.03
20260901201225 32 51 0.0 1.6 0.00 0.00 0.03
20260901200224 31 136 6.4 4.8 0.00 0.00 0.03
20260901195725 31 110 6.4 3.2 0.00 0.00 0.03
20260901195221 31 136 6.4 6.4 0.00 0.00 0.03
20260901194219 32 139 1.6 6.4 0.00 0.00 0.03
20260901193720 32 134 0.0 8.0 0.00 0.00 0.03
20260901193217 32 359 3.2 1.6 0.00 0.00 0.03
20260901192718 32 312 1.6 0.0 0.00 0.00 0.03
20260901192216 32 120 3.2 3.2 0.00 0.00 0.03
20260901191717 31 127 9.7 8.0 0.00 0.00 0.03
20260901191215 32 162 12.9 6.4 0.00 0.00 0.03
20260901190214 32 129 3.2 1.6 0.00 0.00 0.03
20260901185715 32 84 1.6 3.2 0.00 0.00 0.03
20260901185213 32 91 3.2 3.2 0.00 0.00 0.03
20260901184714 32 84 0.0 0.0 0.00 0.00 0.03
20260901184212 32 118 9.7 8.0 0.00 0.00 0.03
20260901183211 32 128 6.4 11.3 0.00 0.00 0.03
20260901182712 32 80 6.4 3.2 0.00 0.00 0.03
20260901182210 32 53 0.0 0.0 0.00 0.00 0.03
20260901181710 32 62 0.0 0.0 0.00 0.00 0.03
20260901181208 32 101 1.6 0.0 0.00 0.00 0.03
20260901180708 32 134 1.6 1.6 0.00 0.00 0.03
20260901180207 31 93 6.4 6.4 0.00 0.00 0.03
20260901174706 32 100 1.6 1.6 0.00 0.00 0.03
20260901174205 31 115 3.2 1.6 0.00 0.00 0.03
20260901173705 31 87 3.2 1.6 0.00 0.00 0.03
20260901173202 31 100 0.0 4.8 0.00 0.00 0.03
20260901172702 31 103 1.6 0.0 0.00 0.00 0.03
20260901172201 31 138 1.6 6.4 0.00 0.00 0.03
20260901171701 31 55 0.0 0.0 0.00 0.00 0.03
20260901171200 31 84 1.6 6.4 0.00 0.00 0.03
20260901170701 31 141 8.0 8.0 0.00 0.00 0.03
20260901170159 31 128 9.7 8.0 0.00 0.00 0.03
20260901165659 31 55 0.0 0.0 0.00 0.00 0.03
20260901165156 31 148 4.8 8.0 0.00 0.00 0.03
20260901164657 31 101 1.6 3.2 0.00 0.00 0.03
20260901164155 31 107 3.2 3.2 0.00 0.00 0.03
20260901163656 31 105 3.2 1.6 0.00 0.00 0.03
20260901163154 31 75 1.6 1.6 0.00 0.00 0.03
20260901162655 31 72 0.0 0.0 0.00 0.00 0.03
20260901162153 31 72 6.4 4.8 0.00 0.00 0.03
20260901161654 32 96 3.2 3.2 0.00 0.00 0.03
20260901161152 32 285 1.6 0.0 0.00 0.00 0.03
20260901160653 32 277 1.6 0.0 0.00 0.00 0.03
20260901160151 31 200 0.0 1.6 0.00 0.00 0.03
20260901155652 31 25 0.0 0.0 0.00 0.00 0.03
20260901155149 31 25 1.6 0.0 0.00 0.00 0.03
20260901154650 31 308 0.0 0.0 0.00 0.00 0.03
20260901152648 30 34 0.0 0.0 0.00 0.00 0.03
20260901152146 29 100 4.8 6.4 0.00 0.00 0.03
20260901151146 29 104 8.0 6.4 0.00 0.00 0.03
20260901150647 29 141 4.8 3.2 0.00 0.00 0.03
20260901150145 29 96 4.8 3.2 0.00 0.00 0.03
20260901145646 28 98 6.4 4.8 0.00 0.00 0.03
20260901145144 28 84 6.4 6.4 0.00 0.00 0.03
20260901144645 29 103 3.2 3.2 0.00 0.00 0.03
20260901144141 28 176 0.0 0.0 0.00 0.00 0.03
20260901143642 28 238 1.6 1.6 0.00 0.00 0.03
20260901143140 28 231 0.0 0.0 0.00 0.00 0.03
20260901142139 27 98 0.0 0.0 0.00 0.00 0.03
20260901141640 27 98 0.0 0.0 0.00 0.00 0.03
20260901141237 26 98 0.0 0.0 0.00 0.00 0.03
20260901141137 27 98 0.0 0.0 0.00 0.00 0.03
20260901140135 26 98 0.0 0.0 0.00 0.00 0.03
20260901135525 26 97 3.2 3.2 0.00 0.00 0.03
20260901135134 26 97 3.2 3.2 0.00 0.00 0.03
20260901134817 26 101 4.8 4.8 0.00 0.00 0.03
20260901134635 26 101 4.8 4.8 0.00 0.00 0.03
20260901134131 26 82 0.0 0.0 0.00 0.00 0.03
20260901133127 26 96 0.0 0.0 0.00 0.00 0.03
20260901132127 26 96 0.0 0.0 0.00 0.00 0.03
20260901131731 26 96 0.0 0.0 0.00 0.00 0.03
20260901131628 26 96 0.0 0.0 0.00 0.00 0.03
20260901131203 26 96 0.0 0.0 0.00 0.00 0.03
20260901131124 26 96 0.0 0.0 0.00 0.00 0.03
20260901130741 26 87 0.0 1.6 0.00 0.00 0.03
20260901130625 26 87 0.0 1.6 0.00 0.00 0.03
20260901130333 25 107 0.0 0.0 0.00 0.00 0.03
20260901130331 25 107 0.0 0.0 0.00 0.00 0.03
20260901130300 25 107 0.0 0.0 0.00 0.00 0.03
20260901130258 25 107 0.0 0.0 0.00 0.00 0.03
20260901125624 25 107 0.0 0.0 0.00 0.00 0.03
20260901125119 25 107 0.0 0.0 0.00 0.00 0.03
20260901124621 25 107 0.0 0.0 0.00 0.00 0.03
20260901123618 25 107 0.0 0.0 0.00 0.00 0.03
20260901123311 25 107 0.0 0.0 0.00 0.00 0.03
20260901123240 25 107 0.0 0.0 0.00 0.00 0.03
20260901123112 25 107 0.0 0.0 0.00 0.00 0.03
20260901122613 25 107 0.0 0.0 0.00 0.00 0.03
20260901122114 24 107 0.0 0.0 0.00 0.00 0.03
20260901121613 24 107 0.0 0.0 0.00 0.00 0.03
20260901121108 23 107 0.0 0.0 0.00 0.00 0.03
20260901120609 24 107 0.0 0.0 0.00 0.00 0.03
20260901114103 23 107 0.0 0.0 0.00 0.00 0.03
20260901113655 23 107 0.0 0.0 0.00 0.00 0.03
20260901113605 23 107 0.0 0.0 0.00 0.00 0.03
20260901112708 23 107 0.0 0.0 0.00 0.00 0.03
20260901112603 23 107 0.0 0.0 0.00 0.00 0.03
20260901112545 23 107 0.0 0.0 0.00 0.00 0.03
20260901112442 23 107 0.0 0.0 0.00 0.00 0.03
20260901112059 23 107 0.0 0.0 0.00 0.00 0.03
20260901111600 23 107 0.0 0.0 0.00 0.00 0.03
20260901111056 23 107 0.0 0.0 0.00 0.00 0.03
20260901110557 23 107 0.0 0.0 0.00 0.00 0.03
20260901105634 23 107 0.0 0.0 0.00 0.00 0.03
20260901105557 23 107 0.0 0.0 0.00 0.00 0.03
20260901105055 23 107 0.0 0.0 0.00 0.00 0.03
20260901104050 23 107 0.0 0.0 0.00 0.00 0.03
20260901103551 23 107 0.0 0.0 0.00 0.00 0.03
20260901102936 23 107 0.0 0.0 0.00 0.00 0.03
20260901102900 23 107 0.0 0.0 0.00 0.00 0.03
20260901102550 23 107 0.0 0.0 0.00 0.00 0.03
20260901102048 23 107 0.0 0.0 0.00 0.00 0.03
20260901101350 23 107 0.0 0.0 0.00 0.00 0.03
20260901101317 23 107 0.0 0.0 0.00 0.00 0.03
20260901101244 23 107 0.0 0.0 0.00 0.00 0.03
20260901101045 23 107 0.0 0.0 0.00 0.00 0.03
20260901095545 23 107 0.0 0.0 0.00 0.00 0.03
20260901094617 23 107 0.0 0.0 0.00 0.00 0.03
20260901094541 23 107 0.0 0.0 0.00 0.00 0.03
20260901093600 23 107 0.0 0.0 0.00 0.00 0.03
20260901093539 23 107 0.0 0.0 0.00 0.00 0.03
20260901093526 23 107 0.0 0.0 0.00 0.00 0.03
20260901093446 23 107 0.0 0.0 0.00 0.00 0.03
20260901092538 24 107 0.0 0.0 0.00 0.00 0.03
20260901091536 23 107 0.0 0.0 0.00 0.00 0.03
20260901091118 23 107 0.0 0.0 0.00 0.00 0.03
20260901091031 23 107 0.0 0.0 0.00 0.00 0.03
20260901090531 23 107 0.0 0.0 0.00 0.00 0.03
20260901090029 24 107 0.0 0.0 0.00 0.00 0.03
20260901085100 23 107 0.0 0.0 0.00 0.00 0.03
20260901085026 23 107 0.0 0.0 0.00 0.00 0.03
20260901083523 24 107 0.0 0.0 0.00 0.00 0.03
20260901083508 23 107 0.0 0.0 0.03 0.00 0.03
20260901083017 23 107 0.0 0.0 0.03 0.00 0.03
20260901082911 23 107 0.0 0.0 0.03 0.00 0.03
20260901082909 23 107 0.0 0.0 0.03 0.00 0.03
20260901082610 23 107 0.0 0.0 0.03 0.00 0.03
20260901082518 23 107 0.0 0.0 0.03 0.00 0.03
20260901081552 23 107 0.0 0.0 0.03 0.00 0.03
20260901081513 23 107 0.0 0.0 0.03 0.00 0.03
20260901081011 23 107 0.0 0.0 0.03 0.00 0.03
20260901080951 23 107 0.0 0.0 0.03 0.00 0.03
20260901080948 23 107 0.0 0.0 0.03 0.00 0.03
20260901080853 23 107 0.0 0.0 0.03 0.00 0.03
20260901080847 23 107 0.0 0.0 0.03 0.00 0.03
20260901080042 23 107 0.0 0.0 0.03 0.00 0.03
20260901080008 23 107 0.0 0.0 0.03 0.00 0.03
20260901074508 23 107 0.0 0.0 0.03 0.00 0.03
20260901074005 23 107 0.0 0.0 0.03 0.00 0.03
20260901073506 23 107 0.0 0.0 0.03 0.00 0.03
20260901073004 23 107 0.0 0.0 0.00 0.00 0.03
20260901072809 23 107 0.0 0.0 0.00 0.00 0.03
20260901072623 23 107 0.0 0.0 0.00 0.00 0.03
20260901072506 23 107 0.0 0.0 0.00 0.00 0.03
20260901072114 23 107 0.0 0.0 0.00 0.00 0.03
20260901072000 23 107 0.0 0.0 0.00 0.00 0.03
20260901071027 23 107 0.0 0.0 0.00 0.00 0.03
20260901071022 23 107 0.0 0.0 0.00 0.00 0.00
20260901070956 23 107 0.0 0.0 0.00 0.00 0.03
20260901070943 23 107 0.0 0.0 0.00 0.00 0.00
20260901070901 23 107 0.0 0.0 0.00 0.00 0.00
20260901070528 23 107 0.0 0.0 0.00 0.00 0.03
20260901070457 23 107 0.0 0.0 0.00 0.00 0.03
20260901070032 23 107 0.0 0.0 0.00 0.00 0.00
20260901065953 23 107 0.0 0.0 0.00 0.00 0.00
20260901065556 23 107 0.0 0.0 0.00 0.00 0.00
20260901065454 23 107 0.0 0.0 0.00 0.00 0.00
20260901065023 23 107 0.0 0.0 0.00 0.00 0.00
20260901064950 23 107 0.0 0.0 0.00 0.00 0.00
20260901064855 24 107 0.0 0.0 0.00 0.00 0.00
20260901064816 23 107 0.0 0.0 0.00 0.00 0.00
20260901064745 23 107 0.0 0.0 0.00 0.00 0.00
20260901064450 23 107 0.0 0.0 0.00 0.00 0.00
20260901064024 23 107 0.0 0.0 0.00 0.00 0.00
20260901063948 23 107 0.0 0.0 0.00 0.00 0.00
20260901063448 24 107 0.0 0.0 0.00 0.00 0.00
20260901062848 24 107 0.0 0.0 0.00 0.03 0.00
20260901062801 24 107 0.0 0.0 0.00 0.03 0.00
20260901061442 24 107 0.0 0.0 0.00 0.03 0.00
20260901060939 24 107 0.0 0.0 0.00 0.03 0.00
20260901060532 24 107 0.0 0.0 0.00 0.03 0.00
20260901060441 24 107 0.0 0.0 0.00 0.03 0.00
20260901055937 24 107 0.0 0.0 0.00 0.03 0.00
20260901055024 24 107 0.0 0.0 0.00 0.03 0.00
20260901054935 24 107 0.0 0.0 0.00 0.03 0.00
20260901053434 24 107 0.0 0.0 0.00 0.03 0.00
20260901052930 24 107 0.0 0.0 0.00 0.03 0.00
20260901051425 24 107 0.0 0.0 0.00 0.03 0.00
20260901042943 25 107 0.0 0.0 0.00 0.03 0.00
20260901042909 25 107 0.0 0.0 0.00 0.03 0.00
20260901041941 25 107 0.0 0.0 0.00 0.03 0.00
20260901041906 25 107 0.0 0.0 0.00 0.03 0.00
20260901040908 25 107 0.0 0.0 0.00 0.03 0.00
20260901040406 25 107 0.0 0.0 0.00 0.03 0.00
20260901035857 25 107 0.0 0.0 0.00 0.03 0.00
20260901035358 25 107 0.0 0.0 0.00 0.03 0.00
20260901034945 25 107 0.0 0.0 0.00 0.03 0.00
20260901034855 25 107 0.0 0.0 0.00 0.03 0.00
20260901034357 25 107 0.0 0.0 0.00 0.03 0.00
20260901033852 25 107 0.0 0.0 0.00 0.03 0.00
20260901032352 25 107 0.0 0.0 0.00 0.03 0.00
20260901031351 25 107 0.0 0.0 0.00 0.03 0.00
20260901030847 25 107 0.0 0.0 0.00 0.03 0.00
20260901030347 25 107 0.0 0.0 0.00 0.03 0.00
20260901025346 25 107 0.0 0.0 0.00 0.03 0.00